Precipitable_Water
0.60 0.56 0.50 0.48 0.46 0.42 0.40 0.38 0.34 0.32 0.30 0.30 0.30 0.30 0.30 0.28 0.28 0.28 0.28 0.28 0.28 0.28 0.28 0.28 0.28 0.28 0.28 0.28 0.30 0.32 0.34 0.34 0.34 0.36 0.36 0.38 0.40 0.40 0.40 0.42 0.44 0.46 0.46 0.48 0.48 0.50 0.50 0.52 0.54 0.54 0.56 0.56 0.56 0.56 0.54 0.54 0.54 0.54 0.52 0.52 0.52 0.52 0.52 0.52 0.50 0.48 0.48 0.46 0.46 0.46 0.46 0.46 0.46 0.46 0.44 0.46 0.46 0.44 0.42 0.42 0.40 0.40 0.40 0.40 0.42 0.42
0.56 0.52 0.48 0.44 0.42 0.40 0.38 0.34 0.34 0.32 0.30 0.30 0.28 0.28 0.28 0.28 0.26 0.26 0.26 0.28 0.28 0.28 0.28 0.28 0.28 0.28 0.28 0.28 0.28 0.30 0.32 0.34 0.34 0.36 0.36 0.38 0.40 0.42 0.42 0.44 0.44 0.46 0.46 0.48 0.48 0.50 0.52 0.54 0.56 0.56 0.56 0.54 0.54 0.54 0.54 0.52 0.52 0.52 0.52 0.52 0.52 0.50 0.50 0.50 0.48 0.46 0.46 0.46 0.46 0.46 0.46 0.44 0.44 0.44 0.42 0.42 0.42 0.42 0.40 0.40 0.40 0.40 0.40 0.42 0.42 0.42
0.50 0.48 0.46 0.42 0.40 0.36 0.34 0.32 0.32 0.30 0.30 0.28 0.28 0.28 0.28 0.26 0.26 0.26 0.26 0.26 0.28 0.28 0.28 0.28 0.28 0.28 0.28 0.28 0.28 0.30 0.32 0.34 0.34 0.36 0.38 0.40 0.40 0.42 0.42 0.44 0.46 0.46 0.46 0.48 0.50 0.50 0.52 0.54 0.56 0.56 0.54 0.54 0.54 0.54 0.52 0.52 0.52 0.52 0.52 0.52 0.50 0.48 0.48 0.48 0.46 0.46 0.46 0.46 0.46 0.44 0.44 0.42 0.42 0.42 0.40 0.40 0.40 0.40 0.40 0.40 0.40 0.40 0.40 0.42 0.42 0.40
0.48 0.46 0.42 0.40 0.38 0.36 0.32 0.32 0.30 0.30 0.30 0.28 0.28 0.28 0.28 0.26 0.26 0.26 0.26 0.26 0.26 0.28 0.28 0.28 0.28 0.28 0.28 0.28 0.28 0.30 0.32 0.34 0.36 0.36 0.38 0.40 0.42 0.42 0.42 0.44 0.44 0.46 0.46 0.48 0.50 0.52 0.54 0.54 0.56 0.54 0.54 0.54 0.52 0.52 0.50 0.52 0.52 0.52 0.50 0.50 0.48 0.48 0.46 0.46 0.46 0.44 0.46 0.46 0.44 0.44 0.44 0.42 0.40 0.40 0.40 0.40 0.40 0.40 0.40 0.40 0.40 0.40 0.42 0.40 0.40 0.38
0.46 0.44 0.40 0.38 0.36 0.34 0.32 0.32 0.30 0.30 0.28 0.28 0.28 0.28 0.28 0.26 0.26 0.26 0.26 0.26 0.26 0.26 0.26 0.28 0.28 0.28 0.28 0.28 0.28 0.30 0.32 0.34 0.36 0.38 0.38 0.40 0.42 0.42 0.42 0.44 0.46 0.46 0.48 0.50 0.52 0.52 0.54 0.54 0.54 0.54 0.52 0.52 0.52 0.50 0.50 0.50 0.50 0.50 0.50 0.48 0.48 0.48 0.46 0.46 0.44 0.44 0.44 0.44 0.44 0.42 0.42 0.40 0.40 0.40 0.40 0.40 0.40 0.40 0.40 0.40 0.40 0.40 0.40 0.40 0.38 0.36
0.44 0.42 0.38 0.34 0.32 0.32 0.32 0.30 0.30 0.30 0.28 0.28 0.28 0.28 0.26 0.26 0.26 0.26 0.26 0.26 0.26 0.26 0.26 0.26 0.28 0.28 0.28 0.28 0.30 0.32 0.32 0.34 0.36 0.38 0.38 0.40 0.42 0.42 0.42 0.44 0.46 0.48 0.48 0.50 0.52 0.52 0.54 0.54 0.54 0.52 0.52 0.50 0.50 0.50 0.50 0.50 0.50 0.50 0.48 0.48 0.48 0.46 0.46 0.44 0.44 0.44 0.44 0.44 0.42 0.40 0.40 0.40 0.40 0.40 0.40 0.38 0.38 0.40 0.40 0.40 0.40 0.38 0.38 0.36 0.36 0.36
0.42 0.40 0.36 0.34 0.32 0.30 0.30 0.30 0.30 0.28 0.28 0.28 0.26 0.26 0.26 0.26 0.26 0.26 0.26 0.26 0.26 0.26 0.26 0.26 0.28 0.28 0.28 0.30 0.30 0.32 0.32 0.34 0.36 0.38 0.38 0.40 0.42 0.42 0.42 0.46 0.48 0.48 0.50 0.50 0.52 0.52 0.54 0.52 0.52 0.52 0.50 0.50 0.50 0.50 0.50 0.50 0.48 0.48 0.48 0.46 0.46 0.46 0.44 0.44 0.44 0.42 0.42 0.42 0.40 0.40 0.40 0.40 0.38 0.38 0.38 0.38 0.38 0.38 0.40 0.40 0.38 0.36 0.36 0.34 0.34 0.36
0.38 0.36 0.34 0.32 0.30 0.30 0.30 0.30 0.28 0.28 0.28 0.28 0.26 0.26 0.26 0.26 0.26 0.26 0.26 0.26 0.26 0.26 0.26 0.26 0.28 0.28 0.30 0.30 0.30 0.32 0.32 0.34 0.36 0.38 0.38 0.42 0.42 0.44 0.46 0.48 0.50 0.50 0.50 0.52 0.52 0.52 0.52 0.52 0.50 0.50 0.50 0.50 0.50 0.50 0.48 0.48 0.48 0.48 0.46 0.46 0.46 0.46 0.44 0.44 0.42 0.42 0.40 0.40 0.40 0.38 0.38 0.38 0.38 0.38 0.38 0.38 0.38 0.38 0.38 0.38 0.38 0.36 0.34 0.34 0.34 0.36
0.36 0.34 0.30 0.30 0.30 0.28 0.28 0.28 0.28 0.28 0.28 0.28 0.26 0.26 0.26 0.26 0.24 0.24 0.24 0.26 0.26 0.26 0.26 0.26 0.28 0.28 0.30 0.32 0.32 0.34 0.34 0.36 0.38 0.38 0.40 0.44 0.46 0.46 0.48 0.50 0.50 0.50 0.50 0.52 0.52 0.52 0.52 0.50 0.50 0.50 0.50 0.50 0.48 0.48 0.48 0.48 0.46 0.46 0.46 0.46 0.44 0.44 0.42 0.42 0.42 0.40 0.40 0.38 0.38 0.38 0.38 0.38 0.38 0.38 0.38 0.38 0.38 0.38 0.36 0.36 0.36 0.34 0.34 0.34 0.34 0.36
0.34 0.32 0.30 0.30 0.28 0.28 0.28 0.26 0.28 0.28 0.28 0.28 0.28 0.26 0.26 0.24 0.24 0.24 0.24 0.24 0.26 0.26 0.28 0.28 0.28 0.28 0.32 0.32 0.34 0.36 0.36 0.40 0.40 0.42 0.42 0.48 0.50 0.50 0.50 0.52 0.52 0.52 0.52 0.52 0.50 0.50 0.50 0.50 0.50 0.50 0.50 0.48 0.48 0.48 0.46 0.46 0.46 0.46 0.44 0.44 0.44 0.44 0.42 0.42 0.40 0.40 0.38 0.38 0.38 0.38 0.38 0.38 0.38 0.36 0.36 0.36 0.36 0.36 0.36 0.36 0.34 0.34 0.34 0.34 0.34 0.34
0.32 0.30 0.28 0.28 0.28 0.28 0.28 0.26 0.26 0.28 0.28 0.28 0.26 0.26 0.26 0.26 0.26 0.26 0.24 0.24 0.26 0.26 0.28 0.28 0.28 0.30 0.34 0.36 0.36 0.38 0.38 0.42 0.44 0.46 0.48 0.52 0.52 0.54 0.52 0.54 0.52 0.52 0.52 0.50 0.50 0.50 0.50 0.50 0.50 0.50 0.50 0.48 0.46 0.46 0.44 0.44 0.44 0.44 0.44 0.42 0.42 0.42 0.42 0.40 0.40 0.38 0.38 0.38 0.36 0.36 0.36 0.38 0.36 0.36 0.36 0.36 0.36 0.36 0.34 0.34 0.34 0.34 0.34 0.34 0.34 0.36
0.30 0.28 0.28 0.28 0.28 0.28 0.26 0.26 0.26 0.26 0.26 0.26 0.26 0.24 0.26 0.26 0.28 0.28 0.26 0.26 0.26 0.26 0.28 0.30 0.30 0.34 0.36 0.38 0.40 0.40 0.42 0.46 0.48 0.50 0.52 0.54 0.56 0.56 0.56 0.54 0.52 0.52 0.50 0.50 0.50 0.50 0.50 0.50 0.50 0.50 0.48 0.46 0.46 0.44 0.44 0.44 0.42 0.42 0.42 0.42 0.42 0.40 0.40 0.40 0.38 0.38 0.36 0.36 0.36 0.36 0.36 0.36 0.36 0.36 0.36 0.36 0.36 0.36 0.34 0.34 0.34 0.34 0.34 0.34 0.34 0.36
0.28 0.28 0.26 0.26 0.26 0.26 0.26 0.24 0.24 0.26 0.26 0.26 0.26 0.26 0.26 0.28 0.30 0.30 0.28 0.28 0.28 0.28 0.30 0.30 0.32 0.34 0.38 0.42 0.44 0.44 0.46 0.50 0.54 0.54 0.56 0.58 0.58 0.56 0.56 0.54 0.52 0.52 0.50 0.50 0.50 0.50 0.50 0.50 0.48 0.48 0.46 0.44 0.44 0.44 0.44 0.42 0.42 0.42 0.40 0.40 0.40 0.40 0.38 0.38 0.38 0.38 0.36 0.36 0.36 0.36 0.36 0.36 0.36 0.34 0.36 0.36 0.36 0.36 0.34 0.34 0.34 0.34 0.34 0.34 0.34 0.36
0.28 0.26 0.26 0.26 0.26 0.26 0.26 0.26 0.24 0.24 0.26 0.28 0.28 0.28 0.28 0.30 0.30 0.30 0.30 0.30 0.30 0.30 0.32 0.32 0.32 0.34 0.40 0.42 0.46 0.48 0.48 0.54 0.56 0.58 0.58 0.58 0.58 0.56 0.56 0.52 0.50 0.50 0.50 0.48 0.48 0.48 0.50 0.48 0.48 0.46 0.46 0.42 0.42 0.42 0.42 0.40 0.40 0.40 0.40 0.40 0.40 0.38 0.38 0.38 0.36 0.36 0.36 0.36 0.34 0.34 0.34 0.34 0.34 0.34 0.34 0.36 0.36 0.36 0.36 0.36 0.36 0.34 0.34 0.34 0.34 0.36
0.26 0.26 0.26 0.24 0.24 0.26 0.28 0.26 0.26 0.26 0.28 0.30 0.30 0.30 0.32 0.32 0.32 0.32 0.30 0.30 0.30 0.32 0.32 0.34 0.34 0.38 0.42 0.46 0.48 0.52 0.52 0.56 0.58 0.58 0.58 0.58 0.58 0.56 0.56 0.50 0.50 0.50 0.48 0.48 0.48 0.48 0.48 0.46 0.44 0.44 0.42 0.40 0.40 0.40 0.40 0.40 0.40 0.40 0.38 0.38 0.38 0.38 0.36 0.36 0.36 0.34 0.34 0.34 0.34 0.34 0.34 0.34 0.34 0.34 0.34 0.36 0.36 0.36 0.36 0.36 0.34 0.34 0.32 0.34 0.34 0.36
0.26 0.26 0.26 0.26 0.26 0.26 0.30 0.30 0.30 0.30 0.30 0.32 0.32 0.32 0.32 0.32 0.32 0.32 0.32 0.32 0.32 0.32 0.34 0.34 0.36 0.38 0.46 0.50 0.54 0.56 0.56 0.58 0.58 0.58 0.58 0.56 0.56 0.54 0.54 0.50 0.48 0.48 0.48 0.48 0.48 0.48 0.46 0.44 0.42 0.42 0.40 0.40 0.40 0.40 0.40 0.38 0.38 0.38 0.38 0.38 0.38 0.36 0.36 0.34 0.34 0.34 0.34 0.34 0.34 0.34 0.34 0.34 0.34 0.34 0.34 0.36 0.36 0.36 0.36 0.34 0.34 0.34 0.34 0.34 0.36 0.38
0.28 0.28 0.28 0.28 0.28 0.28 0.32 0.32 0.32 0.32 0.32 0.32 0.34 0.34 0.34 0.32 0.34 0.34 0.32 0.32 0.34 0.34 0.36 0.36 0.38 0.40 0.46 0.50 0.52 0.56 0.58 0.58 0.56 0.56 0.56 0.54 0.52 0.52 0.50 0.48 0.46 0.46 0.46 0.46 0.46 0.46 0.46 0.42 0.40 0.40 0.40 0.38 0.38 0.38 0.38 0.38 0.38 0.38 0.38 0.36 0.36 0.36 0.34 0.34 0.34 0.34 0.34 0.34 0.34 0.34 0.34 0.34 0.34 0.36 0.36 0.36 0.36 0.36 0.36 0.34 0.34 0.34 0.34 0.34 0.36 0.38
0.30 0.30 0.30 0.30 0.30 0.30 0.34 0.34 0.34 0.34 0.34 0.34 0.34 0.34 0.34 0.34 0.36 0.36 0.34 0.34 0.36 0.36 0.38 0.40 0.42 0.44 0.50 0.52 0.54 0.56 0.60 0.58 0.56 0.54 0.54 0.50 0.48 0.48 0.48 0.46 0.44 0.46 0.46 0.44 0.44 0.44 0.42 0.40 0.38 0.38 0.38 0.36 0.36 0.38 0.38 0.36 0.36 0.36 0.36 0.34 0.34 0.34 0.34 0.34 0.34 0.34 0.34 0.34 0.34 0.34 0.34 0.34 0.36 0.36 0.36 0.36 0.36 0.36 0.36 0.34 0.34 0.34 0.34 0.36 0.38 0.36
0.30 0.32 0.32 0.32 0.32 0.32 0.34 0.34 0.34 0.34 0.34 0.36 0.36 0.36 0.36 0.36 0.36 0.36 0.36 0.36 0.38 0.38 0.42 0.44 0.46 0.50 0.54 0.56 0.56 0.58 0.58 0.54 0.52 0.50 0.48 0.44 0.44 0.44 0.46 0.44 0.44 0.44 0.44 0.42 0.42 0.42 0.40 0.38 0.36 0.36 0.36 0.36 0.36 0.36 0.36 0.34 0.34 0.34 0.34 0.34 0.34 0.34 0.34 0.34 0.32 0.34 0.34 0.34 0.34 0.34 0.34 0.34 0.36 0.36 0.36 0.36 0.36 0.34 0.34 0.34 0.34 0.34 0.34 0.36 0.36 0.36
0.32 0.34 0.34 0.34 0.34 0.34 0.34 0.36 0.36 0.36 0.36 0.38 0.38 0.38 0.36 0.36 0.36 0.38 0.38 0.38 0.40 0.42 0.46 0.48 0.50 0.52 0.56 0.56 0.56 0.56 0.56 0.50 0.46 0.46 0.44 0.40 0.40 0.42 0.42 0.42 0.42 0.42 0.42 0.40 0.40 0.40 0.38 0.36 0.36 0.36 0.34 0.34 0.34 0.34 0.34 0.34 0.34 0.34 0.34 0.34 0.34 0.34 0.32 0.32 0.32 0.34 0.34 0.34 0.34 0.34 0.34 0.36 0.36 0.36 0.36 0.36 0.34 0.34 0.34 0.34 0.34 0.34 0.34 0.36 0.36 0.36
0.34 0.34 0.36 0.36 0.36 0.36 0.36 0.36 0.38 0.38 0.38 0.40 0.40 0.40 0.36 0.36 0.36 0.38 0.40 0.40 0.42 0.46 0.50 0.52 0.54 0.54 0.56 0.54 0.54 0.54 0.52 0.48 0.44 0.42 0.40 0.38 0.38 0.40 0.42 0.42 0.40 0.40 0.40 0.38 0.38 0.38 0.36 0.34 0.34 0.34 0.34 0.32 0.32 0.32 0.32 0.32 0.32 0.32 0.32 0.32 0.32 0.32 0.32 0.32 0.34 0.34 0.34 0.34 0.34 0.34 0.34 0.36 0.36 0.36 0.36 0.34 0.34 0.34 0.34 0.34 0.34 0.34 0.36 0.36 0.36 0.34
0.36 0.36 0.38 0.38 0.36 0.36 0.38 0.40 0.40 0.40 0.42 0.42 0.40 0.38 0.38 0.36 0.38 0.38 0.40 0.42 0.46 0.48 0.52 0.54 0.54 0.54 0.52 0.50 0.48 0.48 0.48 0.42 0.40 0.38 0.38 0.36 0.36 0.38 0.40 0.40 0.40 0.40 0.38 0.36 0.36 0.36 0.34 0.32 0.32 0.32 0.32 0.32 0.32 0.32 0.32 0.32 0.32 0.32 0.32 0.32 0.32 0.32 0.32 0.34 0.34 0.34 0.34 0.34 0.34 0.34 0.34 0.34 0.34 0.34 0.34 0.34 0.34 0.34 0.34 0.34 0.34 0.34 0.34 0.36 0.36 0.34
0.38 0.40 0.40 0.40 0.40 0.40 0.42 0.42 0.42 0.42 0.42 0.42 0.40 0.38 0.38 0.38 0.40 0.42 0.44 0.44 0.48 0.50 0.52 0.52 0.54 0.52 0.46 0.46 0.44 0.44 0.40 0.40 0.38 0.38 0.36 0.36 0.36 0.38 0.40 0.40 0.38 0.36 0.36 0.34 0.32 0.32 0.32 0.32 0.30 0.30 0.30 0.30 0.30 0.30 0.30 0.32 0.32 0.32 0.32 0.32 0.32 0.32 0.32 0.34 0.34 0.34 0.34 0.34 0.34 0.34 0.34 0.34 0.34 0.34 0.34 0.34 0.34 0.34 0.34 0.34 0.34 0.34 0.36 0.36 0.34 0.34
0.42 0.42 0.42 0.42 0.42 0.42 0.44 0.44 0.44 0.44 0.42 0.42 0.42 0.40 0.40 0.42 0.44 0.48 0.48 0.50 0.50 0.52 0.52 0.52 0.50 0.48 0.42 0.42 0.42 0.40 0.40 0.40 0.40 0.38 0.38 0.38 0.38 0.40 0.40 0.38 0.36 0.34 0.34 0.32 0.32 0.30 0.30 0.30 0.30 0.30 0.30 0.30 0.30 0.30 0.30 0.32 0.32 0.32 0.32 0.32 0.32 0.32 0.32 0.34 0.34 0.34 0.34 0.34 0.34 0.34 0.34 0.34 0.34 0.34 0.32 0.32 0.32 0.32 0.32 0.32 0.34 0.34 0.36 0.34 0.34 0.34
0.44 0.44 0.44 0.44 0.44 0.44 0.44 0.44 0.44 0.44 0.44 0.44 0.44 0.44 0.44 0.44 0.48 0.52 0.52 0.52 0.52 0.50 0.48 0.46 0.46 0.42 0.38 0.38 0.38 0.38 0.38 0.40 0.40 0.40 0.38 0.38 0.38 0.38 0.38 0.36 0.34 0.32 0.30 0.30 0.30 0.30 0.28 0.28 0.28 0.28 0.28 0.28 0.30 0.30 0.30 0.30 0.32 0.32 0.32 0.32 0.32 0.32 0.34 0.34 0.34 0.34 0.34 0.34 0.34 0.34 0.32 0.32 0.32 0.32 0.32 0.32 0.32 0.32 0.32 0.32 0.34 0.34 0.36 0.34 0.34 0.32
0.44 0.44 0.44 0.44 0.44 0.44 0.42 0.42 0.44 0.44 0.44 0.44 0.44 0.44 0.46 0.46 0.48 0.50 0.50 0.50 0.50 0.48 0.44 0.42 0.40 0.38 0.36 0.36 0.36 0.38 0.38 0.40 0.40 0.40 0.40 0.38 0.36 0.36 0.36 0.32 0.30 0.28 0.28 0.28 0.28 0.28 0.28 0.26 0.26 0.28 0.28 0.28 0.28 0.30 0.30 0.30 0.30 0.30 0.32 0.32 0.32 0.32 0.32 0.34 0.34 0.34 0.32 0.32 0.32 0.32 0.32 0.32 0.32 0.32 0.32 0.32 0.32 0.32 0.32 0.32 0.34 0.34 0.34 0.34 0.32 0.32
0.42 0.42 0.42 0.42 0.42 0.40 0.38 0.38 0.40 0.42 0.44 0.46 0.48 0.48 0.48 0.48 0.50 0.50 0.50 0.50 0.46 0.44 0.42 0.40 0.38 0.36 0.34 0.34 0.36 0.36 0.38 0.40 0.40 0.40 0.40 0.36 0.32 0.32 0.32 0.30 0.28 0.26 0.26 0.26 0.26 0.26 0.26 0.26 0.26 0.26 0.28 0.28 0.28 0.30 0.30 0.30 0.30 0.30 0.32 0.32 0.32 0.32 0.34 0.34 0.34 0.32 0.32 0.32 0.32 0.32 0.32 0.32 0.32 0.32 0.32 0.32 0.32 0.32 0.32 0.32 0.34 0.34 0.34 0.32 0.32 0.32
0.40 0.40 0.38 0.38 0.38 0.36 0.38 0.38 0.40 0.42 0.44 0.48 0.50 0.50 0.50 0.50 0.50 0.48 0.48 0.46 0.44 0.40 0.38 0.36 0.34 0.34 0.34 0.34 0.36 0.36 0.38 0.38 0.38 0.40 0.40 0.34 0.30 0.28 0.28 0.26 0.26 0.26 0.24 0.24 0.24 0.26 0.26 0.26 0.26 0.26 0.26 0.28 0.28 0.28 0.28 0.30 0.30 0.30 0.30 0.32 0.32 0.32 0.32 0.32 0.32 0.32 0.32 0.32 0.32 0.32 0.32 0.32 0.32 0.32 0.32 0.32 0.32 0.32 0.32 0.32 0.34 0.34 0.32 0.32 0.32 0.32
0.36 0.36 0.36 0.36 0.38 0.38 0.40 0.42 0.44 0.46 0.48 0.50 0.52 0.52 0.52 0.52 0.50 0.46 0.46 0.44 0.42 0.38 0.36 0.34 0.34 0.34 0.34 0.34 0.36 0.36 0.34 0.36 0.36 0.36 0.36 0.30 0.26 0.26 0.26 0.24 0.24 0.24 0.22 0.22 0.22 0.24 0.26 0.26 0.26 0.26 0.26 0.26 0.28 0.28 0.28 0.28 0.30 0.30 0.30 0.30 0.30 0.32 0.32 0.32 0.30 0.32 0.32 0.30 0.30 0.30 0.32 0.32 0.32 0.32 0.32 0.32 0.32 0.32 0.32 0.34 0.34 0.34 0.32 0.32 0.32 0.32
0.36 0.36 0.36 0.38 0.40 0.42 0.44 0.44 0.46 0.48 0.50 0.52 0.52 0.54 0.54 0.50 0.48 0.46 0.44 0.42 0.40 0.36 0.34 0.34 0.34 0.34 0.34 0.34 0.34 0.34 0.32 0.32 0.32 0.34 0.32 0.26 0.24 0.24 0.24 0.22 0.22 0.22 0.22 0.22 0.20 0.22 0.24 0.24 0.26 0.26 0.26 0.26 0.26 0.28 0.28 0.28 0.28 0.30 0.30 0.30 0.30 0.30 0.30 0.30 0.30 0.30 0.30 0.30 0.30 0.30 0.32 0.32 0.32 0.32 0.32 0.32 0.32 0.32 0.34 0.34 0.34 0.34 0.34 0.32 0.32 0.32
0.36 0.36 0.38 0.40 0.42 0.44 0.46 0.46 0.48 0.50 0.50 0.52 0.52 0.52 0.52 0.48 0.44 0.44 0.42 0.40 0.36 0.34 0.32 0.32 0.32 0.34 0.34 0.32 0.32 0.30 0.28 0.28 0.30 0.30 0.30 0.26 0.22 0.22 0.22 0.22 0.22 0.22 0.24 0.22 0.20 0.18 0.20 0.20 0.22 0.24 0.26 0.26 0.26 0.26 0.28 0.28 0.28 0.28 0.28 0.28 0.28 0.28 0.30 0.30 0.30 0.30 0.30 0.30 0.30 0.32 0.32 0.32 0.32 0.32 0.32 0.32 0.32 0.34 0.34 0.34 0.34 0.34 0.34 0.34 0.32 0.32
0.38 0.40 0.40 0.42 0.44 0.44 0.46 0.46 0.48 0.48 0.50 0.50 0.50 0.48 0.48 0.44 0.42 0.40 0.40 0.38 0.36 0.34 0.32 0.32 0.34 0.34 0.32 0.32 0.30 0.28 0.24 0.26 0.26 0.28 0.28 0.24 0.22 0.22 0.22 0.22 0.22 0.24 0.24 0.24 0.22 0.20 0.18 0.18 0.20 0.22 0.24 0.24 0.26 0.26 0.26 0.26 0.28 0.28 0.28 0.28 0.26 0.28 0.28 0.28 0.30 0.30 0.30 0.30 0.32 0.32 0.32 0.32 0.34 0.34 0.34 0.34 0.34 0.34 0.34 0.34 0.34 0.34 0.34 0.34 0.34 0.34
0.40 0.40 0.42 0.42 0.44 0.44 0.46 0.46 0.48 0.48 0.48 0.46 0.46 0.46 0.44 0.40 0.38 0.38 0.38 0.36 0.36 0.34 0.34 0.34 0.34 0.34 0.30 0.30 0.28 0.26 0.22 0.24 0.24 0.26 0.26 0.24 0.24 0.22 0.22 0.22 0.22 0.22 0.24 0.22 0.22 0.20 0.18 0.20 0.20 0.22 0.24 0.24 0.26 0.26 0.26 0.26 0.26 0.26 0.26 0.26 0.26 0.26 0.28 0.28 0.30 0.30 0.30 0.32 0.32 0.32 0.32 0.34 0.34 0.34 0.34 0.34 0.34 0.34 0.34 0.34 0.36 0.36 0.34 0.34 0.34 0.34
0.40 0.42 0.42 0.44 0.44 0.44 0.46 0.46 0.46 0.46 0.44 0.44 0.42 0.42 0.40 0.38 0.36 0.36 0.36 0.36 0.36 0.36 0.36 0.34 0.34 0.32 0.28 0.26 0.24 0.22 0.22 0.22 0.24 0.26 0.28 0.26 0.24 0.22 0.22 0.22 0.22 0.22 0.22 0.22 0.20 0.20 0.20 0.20 0.20 0.22 0.22 0.24 0.24 0.24 0.26 0.26 0.26 0.26 0.26 0.26 0.26 0.26 0.28 0.28 0.30 0.30 0.30 0.32 0.32 0.32 0.34 0.34 0.34 0.34 0.34 0.34 0.34 0.34 0.36 0.36 0.36 0.36 0.36 0.34 0.34 0.34
0.42 0.42 0.42 0.42 0.44 0.44 0.44 0.46 0.46 0.44 0.40 0.40 0.38 0.38 0.36 0.36 0.34 0.34 0.36 0.36 0.36 0.36 0.36 0.34 0.32 0.30 0.24 0.22 0.22 0.20 0.22 0.22 0.24 0.26 0.28 0.26 0.24 0.24 0.22 0.22 0.22 0.22 0.20 0.20 0.20 0.20 0.20 0.20 0.20 0.20 0.20 0.22 0.22 0.24 0.24 0.24 0.26 0.26 0.26 0.28 0.28 0.28 0.28 0.30 0.30 0.30 0.32 0.32 0.32 0.32 0.34 0.34 0.34 0.34 0.34 0.34 0.36 0.36 0.36 0.36 0.36 0.36 0.36 0.36 0.36 0.36
0.42 0.42 0.42 0.44 0.44 0.44 0.44 0.44 0.44 0.42 0.36 0.36 0.36 0.34 0.34 0.34 0.34 0.36 0.36 0.36 0.36 0.36 0.34 0.34 0.32 0.28 0.24 0.24 0.22 0.22 0.24 0.24 0.26 0.26 0.26 0.26 0.24 0.22 0.22 0.22 0.22 0.20 0.20 0.20 0.20 0.20 0.20 0.20 0.20 0.20 0.20 0.20 0.20 0.20 0.22 0.24 0.26 0.26 0.26 0.28 0.28 0.30 0.30 0.30 0.32 0.32 0.32 0.32 0.32 0.32 0.34 0.34 0.34 0.34 0.34 0.36 0.36 0.36 0.36 0.36 0.36 0.36 0.38 0.38 0.38 0.38
0.42 0.42 0.44 0.44 0.44 0.42 0.42 0.42 0.40 0.38 0.32 0.32 0.32 0.34 0.34 0.34 0.36 0.36 0.36 0.36 0.34 0.32 0.32 0.30 0.28 0.26 0.24 0.24 0.24 0.24 0.26 0.26 0.26 0.26 0.26 0.26 0.24 0.24 0.22 0.22 0.22 0.22 0.22 0.20 0.20 0.20 0.20 0.20 0.20 0.20 0.20 0.20 0.20 0.20 0.20 0.24 0.24 0.24 0.26 0.28 0.28 0.30 0.30 0.32 0.32 0.32 0.32 0.32 0.32 0.32 0.34 0.34 0.34 0.34 0.34 0.36 0.36 0.36 0.36 0.36 0.36 0.38 0.38 0.38 0.38 0.38
0.42 0.42 0.44 0.44 0.42 0.40 0.38 0.36 0.36 0.34 0.30 0.32 0.32 0.34 0.34 0.34 0.36 0.36 0.36 0.34 0.32 0.28 0.26 0.26 0.24 0.24 0.24 0.26 0.26 0.26 0.26 0.26 0.26 0.26 0.26 0.26 0.24 0.24 0.22 0.22 0.22 0.22 0.22 0.22 0.22 0.20 0.20 0.18 0.18 0.18 0.18 0.20 0.20 0.22 0.22 0.22 0.24 0.24 0.26 0.28 0.30 0.30 0.30 0.32 0.32 0.32 0.32 0.32 0.32 0.32 0.32 0.32 0.34 0.34 0.34 0.34 0.34 0.34 0.34 0.34 0.36 0.36 0.36 0.36 0.38 0.38
0.42 0.42 0.42 0.42 0.40 0.38 0.36 0.32 0.30 0.30 0.32 0.32 0.34 0.34 0.34 0.34 0.34 0.34 0.32 0.32 0.28 0.24 0.24 0.24 0.24 0.24 0.26 0.26 0.26 0.26 0.26 0.26 0.26 0.26 0.26 0.26 0.24 0.24 0.22 0.22 0.22 0.24 0.24 0.24 0.22 0.22 0.20 0.20 0.18 0.18 0.20 0.20 0.20 0.20 0.22 0.22 0.24 0.24 0.26 0.26 0.28 0.28 0.30 0.32 0.32 0.32 0.32 0.32 0.32 0.32 0.32 0.32 0.32 0.32 0.32 0.34 0.34 0.34 0.32 0.34 0.34 0.36 0.36 0.36 0.36 0.38
0.42 0.42 0.42 0.38 0.36 0.34 0.32 0.30 0.30 0.30 0.32 0.34 0.34 0.34 0.34 0.34 0.32 0.32 0.30 0.28 0.26 0.24 0.24 0.24 0.24 0.24 0.24 0.26 0.26 0.26 0.26 0.26 0.26 0.26 0.26 0.26 0.26 0.24 0.24 0.24 0.24 0.24 0.24 0.24 0.24 0.24 0.22 0.22 0.22 0.22 0.20 0.20 0.20 0.22 0.22 0.22 0.24 0.26 0.26 0.26 0.26 0.28 0.30 0.32 0.32 0.32 0.32 0.32 0.32 0.32 0.32 0.32 0.32 0.32 0.32 0.32 0.32 0.32 0.34 0.34 0.34 0.34 0.36 0.36 0.34 0.34
0.40 0.40 0.38 0.32 0.30 0.28 0.28 0.28 0.30 0.30 0.34 0.34 0.34 0.34 0.34 0.30 0.28 0.26 0.26 0.24 0.24 0.22 0.22 0.24 0.24 0.24 0.24 0.24 0.26 0.26 0.26 0.26 0.26 0.26 0.26 0.26 0.26 0.26 0.24 0.24 0.24 0.24 0.24 0.24 0.24 0.24 0.24 0.22 0.22 0.22 0.22 0.22 0.22 0.22 0.22 0.24 0.24 0.26 0.26 0.26 0.26 0.28 0.30 0.32 0.32 0.32 0.32 0.32 0.32 0.32 0.32 0.32 0.30 0.30 0.32 0.32 0.32 0.32 0.34 0.34 0.34 0.34 0.34 0.36 0.34 0.34
0.38 0.36 0.34 0.28 0.26 0.26 0.28 0.30 0.32 0.32 0.34 0.32 0.32 0.32 0.30 0.26 0.24 0.22 0.22 0.22 0.22 0.22 0.22 0.22 0.24 0.24 0.22 0.24 0.24 0.26 0.26 0.26 0.26 0.26 0.26 0.26 0.26 0.26 0.26 0.26 0.26 0.24 0.24 0.24 0.24 0.24 0.24 0.24 0.22 0.22 0.22 0.22 0.24 0.24 0.22 0.24 0.26 0.26 0.26 0.26 0.26 0.28 0.28 0.30 0.30 0.32 0.32 0.32 0.32 0.32 0.32 0.32 0.30 0.30 0.30 0.32 0.32 0.34 0.34 0.34 0.34 0.34 0.34 0.34 0.34 0.34
0.32 0.30 0.28 0.26 0.26 0.28 0.30 0.32 0.34 0.34 0.32 0.30 0.30 0.28 0.28 0.24 0.22 0.20 0.20 0.20 0.20 0.22 0.22 0.22 0.22 0.22 0.22 0.22 0.22 0.22 0.24 0.24 0.26 0.26 0.26 0.26 0.26 0.26 0.26 0.26 0.26 0.26 0.26 0.24 0.24 0.24 0.24 0.24 0.24 0.24 0.24 0.24 0.24 0.24 0.24 0.24 0.26 0.26 0.28 0.28 0.26 0.26 0.26 0.28 0.30 0.30 0.30 0.32 0.32 0.32 0.32 0.32 0.32 0.32 0.32 0.32 0.32 0.32 0.34 0.34 0.34 0.34 0.34 0.34 0.34 0.34
0.32 0.28 0.26 0.24 0.24 0.26 0.30 0.32 0.32 0.32 0.30 0.30 0.28 0.28 0.26 0.22 0.22 0.20 0.20 0.20 0.20 0.22 0.22 0.22 0.22 0.22 0.22 0.20 0.22 0.22 0.22 0.24 0.24 0.26 0.26 0.26 0.26 0.26 0.26 0.26 0.26 0.26 0.26 0.24 0.24 0.24 0.24 0.24 0.26 0.26 0.26 0.26 0.24 0.24 0.24 0.24 0.26 0.26 0.28 0.28 0.28 0.26 0.26 0.26 0.28 0.30 0.30 0.30 0.30 0.32 0.32 0.32 0.32 0.32 0.32 0.30 0.32 0.32 0.32 0.32 0.32 0.34 0.34 0.34 0.34 0.34
0.26 0.24 0.22 0.24 0.26 0.30 0.32 0.32 0.30 0.28 0.28 0.26 0.26 0.24 0.22 0.22 0.20 0.20 0.20 0.20 0.20 0.20 0.22 0.22 0.22 0.22 0.20 0.20 0.20 0.20 0.22 0.22 0.24 0.26 0.26 0.26 0.26 0.26 0.26 0.26 0.26 0.26 0.26 0.24 0.24 0.24 0.24 0.24 0.26 0.26 0.26 0.26 0.26 0.26 0.26 0.24 0.26 0.26 0.26 0.28 0.28 0.28 0.28 0.28 0.28 0.30 0.28 0.30 0.30 0.30 0.32 0.32 0.32 0.30 0.30 0.30 0.30 0.30 0.32 0.32 0.32 0.32 0.32 0.34 0.34 0.34
0.22 0.22 0.22 0.26 0.28 0.30 0.32 0.30 0.28 0.26 0.26 0.24 0.22 0.22 0.20 0.20 0.20 0.20 0.20 0.20 0.20 0.20 0.22 0.20 0.20 0.20 0.18 0.20 0.20 0.20 0.20 0.22 0.22 0.24 0.24 0.24 0.26 0.26 0.28 0.28 0.28 0.28 0.26 0.26 0.26 0.26 0.26 0.24 0.26 0.26 0.26 0.26 0.26 0.26 0.26 0.26 0.26 0.26 0.26 0.26 0.26 0.26 0.28 0.28 0.28 0.28 0.28 0.30 0.30 0.30 0.30 0.32 0.30 0.30 0.28 0.28 0.28 0.28 0.30 0.30 0.32 0.32 0.32 0.32 0.34 0.34
0.20 0.20 0.22 0.28 0.30 0.30 0.30 0.28 0.26 0.24 0.24 0.22 0.20 0.20 0.20 0.20 0.20 0.20 0.20 0.20 0.20 0.20 0.20 0.20 0.20 0.18 0.18 0.18 0.18 0.18 0.20 0.20 0.20 0.22 0.24 0.24 0.24 0.26 0.26 0.28 0.28 0.28 0.28 0.26 0.28 0.28 0.28 0.26 0.26 0.26 0.26 0.26 0.24 0.26 0.26 0.26 0.26 0.26 0.26 0.26 0.26 0.26 0.26 0.26 0.28 0.28 0.30 0.30 0.30 0.30 0.30 0.30 0.30 0.28 0.28 0.28 0.28 0.28 0.30 0.30 0.30 0.32 0.32 0.32 0.32 0.32
0.20 0.20 0.22 0.26 0.28 0.30 0.28 0.28 0.26 0.24 0.22 0.20 0.20 0.20 0.20 0.20 0.20 0.20 0.20 0.20 0.20 0.20 0.20 0.20 0.18 0.18 0.18 0.18 0.18 0.20 0.20 0.20 0.20 0.22 0.22 0.24 0.24 0.26 0.26 0.26 0.28 0.28 0.28 0.28 0.28 0.28 0.28 0.28 0.28 0.28 0.28 0.26 0.26 0.24 0.24 0.26 0.26 0.26 0.26 0.26 0.26 0.26 0.26 0.26 0.28 0.28 0.30 0.30 0.30 0.30 0.30 0.30 0.28 0.28 0.28 0.26 0.26 0.26 0.28 0.28 0.28 0.30 0.32 0.32 0.32 0.32
0.22 0.22 0.26 0.28 0.28 0.28 0.26 0.26 0.24 0.22 0.20 0.20 0.18 0.18 0.20 0.20 0.20 0.20 0.20 0.20 0.20 0.20 0.18 0.18 0.18 0.18 0.18 0.18 0.20 0.20 0.20 0.20 0.20 0.22 0.22 0.22 0.24 0.24 0.24 0.26 0.26 0.26 0.28 0.28 0.28 0.28 0.28 0.28 0.28 0.28 0.28 0.28 0.26 0.26 0.26 0.26 0.26 0.26 0.26 0.26 0.26 0.26 0.26 0.26 0.28 0.28 0.28 0.28 0.30 0.30 0.30 0.30 0.30 0.28 0.28 0.26 0.26 0.26 0.26 0.26 0.28 0.30 0.32 0.32 0.32 0.34
0.24 0.26 0.28 0.28 0.26 0.26 0.24 0.24 0.22 0.20 0.18 0.18 0.18 0.18 0.18 0.20 0.20 0.20 0.20 0.20 0.20 0.18 0.18 0.18 0.18 0.18 0.18 0.18 0.18 0.20 0.20 0.20 0.20 0.20 0.22 0.22 0.24 0.24 0.24 0.24 0.24 0.24 0.24 0.26 0.26 0.26 0.26 0.28 0.28 0.28 0.28 0.30 0.28 0.28 0.26 0.26 0.26 0.26 0.26 0.26 0.26 0.26 0.26 0.26 0.26 0.28 0.28 0.28 0.28 0.30 0.30 0.30 0.30 0.28 0.28 0.26 0.26 0.26 0.26 0.26 0.26 0.28 0.30 0.32 0.32 0.34
0.24 0.26 0.26 0.26 0.26 0.24 0.24 0.22 0.20 0.20 0.18 0.18 0.18 0.18 0.18 0.18 0.18 0.20 0.20 0.18 0.18 0.18 0.18 0.18 0.18 0.18 0.18 0.18 0.18 0.20 0.20 0.20 0.20 0.20 0.22 0.22 0.24 0.24 0.24 0.24 0.24 0.24 0.24 0.24 0.22 0.22 0.24 0.24 0.24 0.24 0.26 0.30 0.30 0.30 0.28 0.26 0.26 0.24 0.24 0.26 0.26 0.26 0.26 0.26 0.26 0.28 0.28 0.28 0.28 0.28 0.28 0.28 0.28 0.28 0.28 0.26 0.26 0.24 0.24 0.24 0.26 0.28 0.30 0.32 0.32 0.34
Wind_Speed
23 23 24 24 25 25 26 27 27 27 28 29 29 30 31 32 32 33 33 34 34 35 36 36 37 38 38 38 38 39 39 40 40 41 41 42 42 42 42 42 42 42 43 43 44 45 46 47 47 46 45 45 44 44 45 45 45 46 47 47 47 48 48 48 49 48 48 48 47 47 47 47 47 47 47 47 47 47 48 48 48 49 49 49 49 50
23 23 24 24 25 25 26 27 27 27 28 29 29 30 31 31 32 33 33 34 34 35 36 37 37 38 38 38 39 39 39 40 41 41 41 41 41 41 42 42 42 43 43 44 45 46 46 47 46 45 45 44 44 44 44 45 45 46 46 47 47 48 48 48 48 48 47 47 46 46 46 46 47 47 47 47 47 48 48 48 49 49 49 49 49 49
23 23 24 25 25 25 26 27 27 28 28 29 29 30 31 31 32 32 33 34 35 36 36 37 37 38 38 39 39 39 40 40 41 41 41 41 41 41 42 42 43 43 44 45 45 46 46 46 46 45 44 44 44 44 44 45 45 46 46 47 47 48 48 48 47 47 46 46 46 46 46 46 47 47 47 47 47 48 48 48 48 48 49 49 49 49
23 23 24 25 25 26 26 27 27 28 28 29 30 30 31 31 32 33 34 35 35 36 37 37 38 38 38 38 39 39 40 40 41 41 41 41 41 42 42 42 43 43 44 45 45 46 46 46 45 44 44 43 43 44 44 45 45 46 47 47 47 47 47 47 46 46 46 46 46 46 46 46 46 47 47 47 47 47 48 48 48 48 48 49 49 49
23 23 24 25 25 26 26 27 27 28 29 29 30 30 31 31 32 33 34 35 36 36 37 37 38 38 38 38 39 39 40 40 41 41 41 41 42 42 42 43 43 44 44 45 45 46 46 45 44 44 43 43 44 44 45 45 46 46 47 47 47 47 47 46 46 45 45 45 45 46 46 46 47 47 47 47 47 47 48 48 48 48 48 49 49 48
23 23 24 25 25 26 26 27 27 28 29 29 30 30 31 32 33 33 34 35 35 36 37 37 38 38 38 38 39 39 40 40 41 41 41 42 42 42 42 43 43 44 44 45 45 46 45 45 44 43 43 43 44 44 45 46 46 47 47 47 47 46 46 46 45 45 45 45 46 46 46 46 47 47 47 47 47 47 47 48 48 48 48 48 48 48
23 24 24 24 25 25 26 27 27 28 29 29 30 31 32 32 33 34 34 35 35 36 37 37 37 38 38 38 39 39 40 40 41 41 41 42 42 42 42 43 43 44 44 45 46 45 45 44 43 43 43 44 44 45 45 46 46 47 47 46 46 46 46 45 45 45 45 45 46 46 46 46 46 47 47 47 47 47 47 47 48 48 48 48 48 47
23 23 24 24 25 26 26 27 27 28 29 30 30 31 32 33 34 34 35 35 36 36 37 37 37 38 38 38 39 39 40 41 41 41 42 42 42 42 42 43 43 44 45 46 46 45 44 43 43 43 43 44 45 45 46 46 46 46 46 46 46 45 45 45 45 45 45 46 46 46 46 46 46 47 47 47 47 47 47 47 48 48 48 47 47 46
22 23 24 24 25 25 26 27 28 29 29 30 31 32 33 34 34 35 35 35 36 36 37 37 37 37 38 38 39 40 40 41 41 41 42 42 42 42 43 44 45 45 46 46 46 44 43 43 43 43 44 45 45 46 46 46 46 46 45 45 45 45 45 45 45 45 46 46 46 46 46 46 46 46 47 47 47 47 47 47 47 48 47 46 45 45
22 23 23 24 25 25 26 27 28 29 30 30 31 32 33 34 35 35 36 36 36 37 37 37 37 38 38 39 39 40 40 41 41 41 42 42 43 43 44 45 46 47 47 46 45 44 43 43 43 44 44 45 45 45 45 45 45 45 45 45 45 45 45 45 45 45 46 46 46 46 46 46 46 46 46 46 47 47 47 47 47 47 46 45 44 43
22 23 23 24 25 26 26 27 29 30 30 31 31 32 33 33 34 35 36 37 37 37 37 37 37 37 38 39 40 40 41 41 41 42 42 43 44 45 46 46 47 47 47 46 45 44 43 44 44 44 45 45 45 44 44 44 44 44 44 44 45 45 45 45 45 46 46 46 46 46 46 46 46 46 46 46 46 46 46 46 46 45 44 43 42 41
22 23 24 25 26 26 27 28 29 30 31 31 32 33 34 34 34 35 36 36 37 38 38 38 38 38 38 39 40 41 41 41 42 43 44 44 45 46 47 47 47 47 46 45 44 44 44 44 45 45 44 44 44 43 43 43 44 44 44 44 45 45 45 45 46 46 46 46 46 46 46 46 46 46 46 46 46 46 46 45 44 43 42 41 40 39
23 23 24 25 26 27 28 29 29 30 31 31 32 33 34 35 35 35 36 36 37 38 38 39 39 39 39 39 40 41 42 43 43 44 44 45 46 46 46 46 46 46 45 45 45 44 45 45 45 44 44 43 43 43 43 43 43 44 44 44 45 45 45 45 45 46 46 46 45 45 45 45 45 45 46 46 45 45 44 43 42 41 40 39 38 37
23 24 25 26 26 27 28 29 30 30 31 32 32 33 34 35 36 36 37 37 38 38 38 39 39 39 40 40 41 42 43 44 44 45 45 45 45 45 45 45 45 44 44 44 44 44 45 44 44 43 43 42 42 42 43 43 43 44 44 45 45 45 45 45 45 45 45 45 45 45 45 45 45 45 45 45 44 43 42 41 40 39 38 37 36 35
23 24 25 26 27 28 28 29 30 31 31 32 33 34 35 36 36 37 37 38 39 39 39 39 40 40 40 41 42 43 44 45 45 45 45 45 44 44 44 44 44 44 44 43 44 44 44 43 43 42 42 42 42 42 43 43 44 44 44 45 45 45 45 45 45 45 45 45 45 45 45 45 45 45 44 43 43 41 40 39 38 37 36 35 34 33
24 24 25 26 27 28 29 29 30 31 32 33 34 34 35 36 37 38 38 38 39 39 39 40 40 41 41 42 42 43 44 45 45 45 45 44 44 43 43 43 43 43 43 43 42 43 43 42 42 41 41 41 42 43 43 43 44 44 44 45 45 45 45 45 45 45 45 45 45 45 45 44 44 44 43 42 41 39 38 37 36 35 34 33 32 31
24 25 25 26 27 28 29 30 31 31 33 34 34 35 36 36 37 38 38 39 39 39 39 40 40 41 42 43 43 43 44 44 44 44 44 44 43 43 43 42 43 43 42 42 41 41 41 41 41 41 41 42 42 43 43 43 44 44 44 45 45 45 45 45 45 45 45 44 44 44 44 44 43 42 41 40 38 37 36 35 34 33 32 31 31 30
24 25 25 26 27 28 30 31 31 32 33 34 35 36 37 37 38 38 39 39 39 39 40 40 40 41 42 43 44 44 44 43 44 44 44 44 44 43 43 42 42 41 41 40 40 40 41 41 41 41 41 42 42 43 43 43 44 44 44 44 44 44 44 44 44 44 44 44 44 44 43 42 41 40 39 38 36 35 34 33 32 31 30 30 29 28
24 25 26 27 28 29 30 31 32 33 35 35 36 37 38 39 39 39 39 39 39 39 40 41 41 42 42 43 43 44 44 43 44 44 44 44 44 43 43 42 41 41 40 40 40 40 41 41 41 41 42 42 43 43 43 43 44 44 44 44 44 44 44 44 44 44 44 44 43 42 41 40 39 38 37 35 34 33 32 31 30 29 29 28 28 28
25 26 27 28 29 30 32 33 34 35 36 37 38 38 39 39 39 39 39 39 39 40 40 41 42 42 42 43 43 43 43 44 44 44 44 43 43 43 42 41 41 40 40 39 40 40 41 41 41 41 42 42 42 43 43 43 43 43 43 44 44 44 44 44 44 44 43 43 42 41 39 38 37 36 35 33 32 31 30 29 28 28 28 27 27 27
26 27 28 29 30 31 33 34 35 36 37 37 38 38 39 39 39 39 40 40 40 41 41 41 41 42 42 42 42 42 42 42 43 43 43 42 42 41 41 40 40 40 40 40 40 41 41 41 41 41 42 42 42 42 43 43 43 43 43 43 43 44 44 44 43 43 42 41 40 38 37 36 35 33 33 32 31 30 29 28 27 27 27 27 27 27
27 28 29 30 31 32 33 34 35 36 37 37 38 38 39 39 39 40 40 40 41 41 41 41 41 41 40 40 41 41 41 41 41 41 41 41 40 40 40 39 39 39 40 40 40 41 41 41 41 41 41 42 42 42 42 43 43 43 43 43 43 43 43 43 42 41 40 39 38 36 35 34 32 31 31 30 29 28 27 27 26 26 27 26 26 26
28 29 30 31 32 33 34 35 35 36 37 37 38 38 39 39 39 40 40 40 41 41 41 40 40 39 39 39 39 39 40 40 40 40 39 39 39 39 39 39 39 40 40 40 40 41 41 40 40 41 41 41 42 42 42 42 43 43 43 43 43 43 42 41 40 39 38 37 35 34 33 31 30 30 29 28 27 27 26 26 26 26 26 26 26 25
29 30 31 32 32 33 34 35 36 37 37 38 38 39 39 40 40 40 40 40 40 40 40 39 39 38 38 38 38 38 38 38 38 38 38 37 38 38 39 39 40 40 40 40 40 40 40 40 40 40 41 41 41 42 42 42 42 42 42 42 42 42 41 40 38 37 36 34 33 32 31 30 29 28 27 27 26 26 26 26 26 26 26 26 25 25
29 30 31 32 33 33 34 35 36 37 37 38 39 40 40 41 41 41 41 40 40 39 39 38 37 36 36 36 37 37 37 37 37 37 37 37 38 38 39 39 40 40 40 40 40 40 39 39 39 40 40 41 41 41 42 42 42 42 42 41 41 40 39 37 36 35 33 32 31 30 29 28 27 27 26 26 26 26 26 26 26 26 25 25 24 24
30 31 31 32 33 34 34 35 36 37 38 39 39 40 41 41 41 40 39 39 38 38 37 36 35 35 35 36 36 36 36 36 36 36 37 37 38 38 39 39 40 40 40 40 40 39 39 39 39 39 40 40 41 41 41 41 41 41 40 40 39 38 36 35 34 32 31 30 29 28 27 27 26 26 26 26 26 26 26 26 26 25 25 24 24 23
30 31 32 33 33 34 35 36 37 38 39 39 40 40 40 40 39 39 38 37 37 36 35 35 35 35 35 36 36 36 36 36 36 37 38 38 38 39 39 39 39 39 40 39 39 39 39 38 39 39 39 40 41 41 41 41 40 40 39 38 37 35 34 33 32 30 29 28 27 27 26 26 26 26 26 26 26 26 26 26 25 25 25 24 23 23
30 31 32 33 34 35 36 37 38 38 39 39 40 40 40 39 38 37 36 36 35 35 34 34 34 35 35 36 36 36 36 36 36 38 38 38 38 38 39 39 39 39 39 39 39 38 38 38 38 39 40 40 40 40 40 40 39 38 37 36 34 33 32 31 30 29 28 27 26 26 26 26 26 26 26 26 26 26 26 26 25 25 24 23 23 22
31 32 32 33 34 35 36 37 38 38 39 39 39 39 38 37 36 35 34 34 34 34 34 34 34 35 35 36 36 36 35 36 37 39 39 39 38 38 39 39 39 39 39 39 38 38 38 38 38 39 40 40 40 40 39 38 37 36 35 33 32 31 30 29 28 27 27 26 26 25 25 25 26 26 26 26 26 26 26 25 25 24 24 23 23 22
31 32 33 34 35 36 36 37 37 38 38 38 38 37 37 35 34 33 33 33 34 34 34 34 35 35 36 36 36 36 36 36 38 39 39 38 38 38 39 38 38 38 38 38 38 38 38 38 38 39 39 39 39 38 37 36 35 33 32 31 30 29 29 28 27 26 26 25 25 25 25 25 26 26 26 26 26 26 26 25 25 24 24 23 23 22
32 33 33 34 35 36 36 36 36 37 37 37 36 36 35 34 33 33 33 33 33 34 34 35 35 35 36 36 36 36 36 37 38 39 38 38 38 38 38 38 38 38 38 38 38 38 38 39 39 39 38 38 37 36 35 33 32 31 30 29 29 28 28 27 26 26 25 25 25 25 25 25 26 26 26 26 26 26 25 25 25 24 23 23 22 22
32 32 33 34 34 35 35 35 36 36 36 36 35 35 34 34 33 33 33 33 34 34 35 35 35 36 36 36 36 35 36 37 38 38 38 37 37 37 37 37 37 38 38 38 38 37 37 38 38 38 37 36 35 34 32 31 30 29 29 28 27 27 27 26 25 25 25 25 25 25 25 25 26 26 26 26 26 25 25 25 25 24 23 23 22 22
32 32 33 33 34 34 34 35 35 35 35 34 34 34 34 34 34 34 34 34 34 34 35 35 36 36 36 36 35 35 35 36 37 38 38 37 37 37 37 37 37 38 38 38 38 37 37 37 37 37 36 34 33 31 30 29 29 28 28 27 26 26 26 25 25 24 24 25 25 25 25 25 26 26 26 26 25 25 25 25 24 24 23 22 22 21
32 32 33 33 34 34 34 34 34 34 33 33 33 34 34 34 34 34 34 34 35 35 35 35 36 36 36 36 35 35 35 36 37 37 37 37 37 37 37 37 37 38 38 38 37 37 36 35 35 34 33 33 31 30 29 28 28 28 27 26 26 25 25 25 24 24 24 24 24 25 25 25 26 26 26 25 25 25 25 24 24 23 22 22 21 21
32 32 33 33 33 33 33 33 33 33 33 33 33 34 34 34 34 35 35 35 35 35 35 35 35 35 35 35 35 35 35 36 36 37 37 37 37 37 37 37 37 37 37 37 36 35 34 34 33 32 31 31 30 29 28 28 28 27 27 26 25 24 24 24 24 24 24 24 24 25 25 25 26 26 25 25 25 25 25 24 24 23 22 21 21 20
32 32 33 33 33 33 33 32 32 32 32 32 33 34 34 34 35 35 35 35 35 35 35 35 34 34 34 34 34 34 35 36 36 37 37 36 37 37 37 37 37 37 36 36 35 33 32 32 31 31 30 29 29 29 28 28 27 27 26 25 25 24 24 24 24 24 24 25 25 25 25 26 26 25 25 25 25 25 24 24 23 23 22 21 21 20
32 32 32 32 32 32 32 31 31 32 32 33 33 34 34 34 35 35 35 35 35 35 35 35 35 34 34 34 34 34 35 35 36 36 36 37 37 37 36 36 36 36 35 34 33 32 31 30 29 29 29 28 28 28 28 28 27 26 26 25 24 24 24 25 25 25 25 25 26 26 26 26 25 25 25 25 25 24 24 23 23 22 22 21 21 20
32 32 32 31 31 31 31 31 31 32 32 33 33 34 34 35 35 35 35 35 35 35 35 35 35 35 34 34 34 34 35 35 36 36 37 37 37 36 36 36 35 35 33 32 31 30 29 28 28 28 28 28 28 28 28 27 27 26 26 25 24 24 24 25 25 26 26 26 26 26 26 25 25 25 24 24 24 23 23 22 22 22 22 22 21 20
31 31 31 30 30 30 30 30 31 31 32 33 33 34 34 35 35 35 35 35 35 35 35 35 34 34 34 34 35 35 35 35 36 36 37 37 37 36 35 35 34 33 32 31 29 28 27 26 26 26 27 28 28 28 27 27 26 26 26 25 24 24 24 25 26 26 26 26 26 26 26 25 25 24 24 23 23 23 22 22 22 22 22 21 21 20
30 30 30 29 29 29 30 30 31 31 32 33 33 34 35 35 35 35 35 35 35 35 35 35 34 34 34 34 35 35 35 36 36 37 37 37 37 36 35 34 33 32 31 29 28 27 26 26 26 26 27 27 27 27 27 26 26 26 26 26 25 25 25 26 26 26 26 26 26 26 25 25 24 24 23 23 23 22 22 22 22 21 21 21 20 20
29 29 29 28 29 29 29 30 31 32 32 33 33 34 34 34 35 35 35 35 35 34 35 35 34 34 34 35 35 35 36 36 36 37 37 37 36 35 34 33 31 30 29 28 27 26 25 25 26 26 26 26 26 26 26 26 26 26 26 26 26 26 26 26 26 26 26 26 26 25 25 25 24 24 23 23 23 22 22 22 21 21 21 20 20 20
28 28 28 28 28 29 29 30 31 32 33 33 33 34 34 34 34 34 34 34 34 34 34 34 34 34 34 34 35 35 36 36 37 37 37 37 36 35 33 31 30 29 28 27 26 25 25 25 25 25 26 26 26 25 25 25 25 25 25 26 26 26 26 26 26 26 26 26 25 25 25 24 24 24 23 23 22 22 22 21 21 21 20 20 20 20
27 27 27 28 28 29 30 30 31 32 33 33 33 33 34 34 34 34 34 34 34 34 34 34 34 34 35 35 35 35 35 36 37 37 37 36 35 33 32 30 28 27 26 26 25 25 24 24 25 25 25 25 25 25 25 25 25 25 25 26 26 26 26 26 26 26 26 25 25 24 24 24 24 24 23 23 22 22 21 21 21 21 20 20 20 20
27 27 27 28 28 29 30 31 31 32 32 33 33 33 33 33 33 34 34 34 34 34 34 34 34 34 35 35 35 35 36 36 36 37 36 35 34 32 31 29 28 26 25 25 25 24 24 24 24 24 25 25 25 25 25 25 25 25 25 26 26 26 25 25 26 26 25 25 25 24 24 24 24 23 23 23 22 22 21 21 20 20 20 20 20 20
26 27 27 28 28 29 30 31 32 32 32 32 32 32 33 33 33 33 33 34 34 34 34 35 35 35 35 35 36 36 36 36 36 36 35 34 33 31 30 28 27 26 25 24 24 24 24 24 24 24 24 24 24 24 25 25 25 25 25 26 25 25 25 25 25 25 25 25 25 24 24 24 24 23 23 22 22 22 21 21 20 20 20 20 20 20
26 27 27 28 28 29 30 31 32 32 32 32 32 32 32 32 33 33 33 33 34 34 34 35 35 35 35 35 36 36 36 36 36 35 34 33 32 31 29 28 27 26 25 24 23 23 23 23 24 24 24 24 24 24 24 25 25 25 25 25 25 25 25 25 25 25 25 25 25 25 25 24 24 23 23 22 22 21 21 20 20 20 20 20 20 20
27 27 27 28 29 29 30 31 31 31 31 31 31 32 32 32 33 33 33 33 34 34 35 35 35 35 35 36 36 36 36 36 35 34 33 32 30 29 29 28 27 26 25 24 23 23 23 23 23 24 24 24 24 25 25 25 25 25 25 25 25 25 25 25 25 25 25 25 25 25 25 25 24 24 23 22 21 21 20 20 20 20 20 20 20 20
27 27 27 28 29 30 30 31 31 31 31 31 31 31 32 32 33 33 33 34 34 34 35 35 35 35 36 36 36 36 36 35 34 33 32 31 30 29 28 28 27 26 25 24 24 23 23 23 23 23 23 23 24 24 25 25 25 25 25 25 25 25 25 25 25 25 25 25 25 25 25 25 24 24 23 22 22 21 20 20 19 19 19 19 19 20
26 27 28 28 29 29 30 30 30 30 30 30 31 31 31 32 32 33 33 33 34 34 35 35 35 36 36 36 36 36 36 35 34 33 31 30 30 29 28 28 27 26 25 24 24 24 23 23 23 22 23 23 23 24 25 25 25 25 24 24 24 24 24 24 25 25 25 25 25 25 25 24 24 23 23 22 22 21 21 20 19 19 19 19 19 20
26 27 28 28 29 29 29 29 30 30 30 30 30 31 31 32 32 32 33 33 34 34 35 35 35 36 36 36 36 36 35 34 33 32 31 30 29 29 28 28 27 26 25 25 25 24 24 24 23 23 22 22 23 24 24 24 25 25 24 24 24 24 24 24 24 24 25 25 25 24 24 24 23 23 23 22 22 21 21 20 20 20 19 19 20 20
26 27 28 28 28 29 29 29 29 29 29 30 30 31 31 31 32 32 33 33 34 34 35 35 36 36 36 36 36 36 35 34 33 32 31 30 29 29 28 28 27 27 26 26 25 25 25 25 24 24 23 23 24 24 24 24 24 24 24 24 24 24 23 23 24 24 24 24 24 24 23 23 23 23 22 22 21 21 21 21 21 21 21 20 20 20
Wind_Direction
299 300 301 302 303 303 304 304 305 305 305 306 306 307 308 309 310 310 311 311 311 312 312 312 312 312 312 311 311 311 311 311 311 311 311 311 311 312 312 312 312 311 311 311 312 312 313 313 314 313 313 313 312 312 313 313 313 313 313 313 314 314 314 314 314 314 314 314 313 313 313 313 313 313 313 313 313 313 313 313 313 314 314 314 314 314
300 301 302 304 304 305 305 305 306 306 306 307 307 308 309 309 310 311 312 312 312 312 312 312 312 312 312 311 311 311 311 311 312 312 312 312 312 312 312 312 312 312 311 312 312 313 314 314 314 313 313 313 313 313 313 313 314 314 314 314 314 314 314 314 314 314 314 314 314 313 313 313 313 313 313 313 313 313 314 314 314 314 314 314 314 314
302 303 304 305 305 306 306 306 307 307 308 308 308 309 310 310 311 311 312 312 313 313 313 313 312 312 312 311 311 311 311 312 312 312 313 312 312 312 312 312 312 312 312 312 313 313 314 314 314 313 313 313 314 314 314 314 314 314 314 314 314 314 315 315 315 314 314 314 314 313 313 313 313 313 314 314 314 314 314 314 314 314 314 314 314 314
303 304 305 306 306 307 307 308 308 309 309 309 310 311 311 311 312 312 312 313 313 313 313 313 312 312 312 311 311 311 312 312 313 313 313 313 312 312 312 312 312 312 312 313 313 314 314 314 314 314 314 314 314 315 314 314 314 314 314 314 314 315 315 315 315 314 314 314 314 314 314 314 314 314 314 315 315 315 315 315 315 315 315 315 315 315
305 306 306 307 308 308 309 309 310 310 311 311 312 312 313 313 313 313 313 313 313 313 313 313 312 312 312 312 312 312 312 313 313 313 313 313 312 312 312 312 312 312 313 313 314 314 314 314 314 314 315 315 315 315 314 314 314 314 314 314 315 315 315 315 315 314 314 314 314 314 314 315 315 315 315 315 315 315 315 315 315 315 315 315 315 315
307 307 308 309 309 310 310 311 311 312 312 313 313 313 314 314 314 314 313 313 313 313 313 313 312 312 312 312 312 313 313 314 314 314 314 313 313 313 313 313 313 314 314 314 314 314 314 314 315 315 316 316 315 315 314 314 314 314 314 315 315 315 315 315 315 314 314 314 314 315 315 315 316 316 316 316 316 316 316 316 316 316 316 315 315 315
309 309 310 311 311 311 312 313 313 314 314 314 314 315 315 314 314 314 314 313 313 313 313 313 313 313 313 313 314 314 314 315 315 315 314 314 314 314 314 314 314 315 315 315 315 315 315 315 315 316 316 316 315 315 314 314 314 314 314 315 315 315 315 315 315 315 314 314 315 315 316 316 316 316 316 316 316 316 316 316 316 316 316 315 315 315
312 312 312 313 313 313 314 314 315 316 316 315 315 316 315 315 315 314 314 314 314 314 314 314 314 313 314 314 315 315 316 315 315 315 315 315 315 315 315 315 315 315 315 315 315 315 315 315 316 316 316 316 315 314 314 314 314 314 314 315 315 316 316 316 316 315 315 315 316 316 316 316 317 316 316 316 316 316 316 316 316 316 316 316 316 316
314 314 315 315 315 316 316 316 316 317 317 316 316 316 316 316 315 315 314 314 314 314 315 315 315 315 315 316 316 316 316 316 316 316 316 316 316 315 315 315 315 315 315 315 315 315 315 316 316 317 316 316 315 314 314 314 314 314 314 315 316 316 316 316 316 316 316 316 317 317 317 317 317 317 317 317 317 317 317 317 317 317 317 316 316 317
316 316 317 317 317 317 317 317 317 317 317 317 316 316 316 317 316 316 315 315 315 315 315 316 316 316 316 316 317 317 316 316 316 317 317 316 316 316 315 315 315 315 315 314 314 315 316 316 317 317 317 316 315 314 314 314 314 314 315 316 316 317 317 317 317 317 317 317 317 317 317 317 317 317 317 317 317 317 317 317 317 317 317 317 317 318
318 318 318 318 318 318 318 318 318 318 318 317 317 316 316 317 317 317 316 316 316 316 316 316 316 316 316 316 317 317 317 317 317 317 317 317 316 316 315 315 314 314 314 314 315 315 316 317 318 318 317 316 315 315 315 314 314 315 316 316 317 317 317 317 317 317 318 318 318 318 318 317 317 317 317 317 317 317 318 318 318 318 318 318 319 319
319 319 319 319 319 319 319 318 318 318 318 318 317 316 317 317 317 317 316 316 316 316 317 317 317 316 316 317 317 318 318 317 317 317 317 317 317 316 315 315 314 314 314 314 315 316 317 318 319 319 318 317 316 316 315 315 315 316 317 317 318 318 318 318 318 318 318 318 318 318 318 318 317 317 317 318 318 318 318 318 319 319 320 320 320 321
320 320 320 320 320 320 320 319 319 319 318 318 318 317 317 317 318 317 316 316 316 316 317 317 317 317 317 318 318 319 319 319 318 318 318 318 318 317 317 316 315 314 315 315 316 317 318 319 319 319 318 318 317 317 316 316 316 317 318 318 318 318 319 319 319 319 319 318 318 318 318 318 318 318 318 318 318 319 319 319 320 321 321 321 322 322
321 321 321 321 321 320 320 320 319 319 318 318 318 318 317 318 318 318 317 317 317 317 317 317 317 317 318 319 319 320 320 319 319 319 319 319 320 319 319 317 317 316 316 316 317 317 319 320 320 320 319 318 318 318 317 317 317 318 318 319 319 319 319 319 319 319 319 319 318 318 318 318 318 318 319 319 319 320 320 321 321 322 322 323 323 323
322 322 321 321 320 320 320 320 319 319 319 319 319 319 319 318 318 318 318 318 318 318 319 318 318 318 319 319 320 320 320 320 320 320 321 321 321 321 321 320 319 319 319 318 318 319 320 320 320 320 319 319 319 318 318 318 318 319 319 319 320 320 320 320 320 319 319 319 319 319 319 319 319 319 319 320 320 321 321 322 323 323 324 324 324 325
323 323 322 321 320 320 320 320 320 320 320 320 319 319 319 319 319 319 319 319 319 319 320 320 320 320 320 320 320 321 321 320 320 321 322 322 322 323 323 322 322 321 321 321 321 321 321 322 321 321 320 320 319 319 319 319 319 320 320 320 320 320 320 320 320 320 319 319 319 319 319 319 320 320 321 321 322 322 323 324 324 325 325 325 326 326
324 324 322 322 321 321 321 321 321 320 320 320 319 319 318 318 319 319 319 320 320 320 321 321 321 321 320 320 320 321 321 321 321 321 322 322 322 323 324 324 324 323 323 323 323 323 323 323 322 321 321 320 320 320 320 320 320 320 321 321 321 321 320 320 320 320 320 320 320 320 320 320 321 321 322 323 323 324 325 325 326 326 327 327 327 328
325 324 323 322 322 321 322 322 321 321 320 320 319 319 319 319 319 319 320 320 321 321 321 321 321 321 321 320 320 320 322 321 321 321 321 322 322 324 325 325 325 325 324 324 324 324 324 323 322 322 321 321 321 321 321 321 321 321 321 321 321 321 321 321 320 320 320 320 321 321 321 322 322 323 323 324 325 325 326 327 327 328 328 329 329 330
325 325 324 323 323 323 323 322 322 321 320 320 319 319 320 320 320 320 320 320 321 321 321 321 321 320 320 320 319 320 321 321 321 321 321 321 322 324 325 326 326 326 325 325 325 324 324 323 323 322 322 322 322 322 322 322 322 322 322 322 321 321 321 321 321 321 321 321 322 322 322 323 324 324 325 326 327 327 328 328 329 329 330 331 332 332
326 325 325 325 324 324 323 323 322 322 321 321 321 321 321 321 321 321 321 320 320 320 320 320 320 319 319 319 319 319 321 321 320 320 320 321 322 324 325 327 327 326 326 325 325 324 324 323 323 323 323 323 323 323 323 323 323 322 322 322 322 321 321 322 322 322 322 322 323 323 324 325 326 326 327 328 328 329 329 330 331 331 332 333 334 334
327 327 326 326 326 325 324 324 324 323 323 323 323 323 323 323 323 322 322 321 320 320 320 319 318 318 318 318 318 319 320 320 320 320 321 322 323 325 326 327 327 326 326 325 325 324 324 324 324 324 324 324 324 324 324 323 323 323 322 322 322 322 322 322 323 323 324 324 325 325 326 327 328 328 329 330 330 331 331 332 333 333 334 335 335 335
329 328 327 327 326 326 325 325 325 325 325 325 325 325 325 324 324 323 322 322 321 320 320 319 318 318 318 318 318 319 320 320 321 321 322 323 324 326 327 327 327 326 326 325 325 325 325 325 325 325 325 325 325 324 324 324 323 323 323 323 323 323 323 324 324 325 325 326 326 327 328 329 330 330 331 332 332 333 333 334 335 335 336 336 336 337
330 329 328 328 327 327 327 326 326 326 326 326 326 326 326 325 325 324 323 323 322 321 320 319 319 319 319 320 320 321 322 322 323 324 325 325 326 326 327 328 327 327 326 326 325 325 326 326 326 326 326 326 325 325 325 324 324 324 324 323 324 324 324 325 326 327 327 328 329 330 331 331 332 333 333 334 334 335 335 336 336 337 337 337 337 337
330 330 329 329 328 328 328 327 327 327 327 327 327 327 326 326 326 325 324 324 323 322 322 321 321 322 322 323 323 324 324 325 326 327 328 327 327 327 328 328 328 327 327 326 326 327 327 327 327 326 326 326 326 326 326 325 325 325 325 325 325 325 326 327 328 328 329 330 331 332 333 334 335 335 336 336 336 337 337 337 338 338 338 338 338 338
331 330 330 329 329 328 328 328 328 328 328 328 328 327 327 327 326 326 326 325 324 324 323 324 324 325 325 326 326 327 327 327 328 329 330 329 328 328 328 329 329 328 327 327 328 328 327 327 327 327 327 327 327 327 326 326 326 326 326 326 327 327 328 329 330 331 332 333 334 335 336 337 337 338 338 338 338 339 339 339 339 339 339 338 339 339
331 331 330 330 330 330 330 330 330 329 329 329 329 329 328 328 327 327 326 326 326 326 326 327 327 327 328 328 329 329 329 329 330 330 331 330 329 329 329 330 330 329 328 328 328 329 328 328 328 328 328 328 328 328 328 328 328 328 328 329 329 329 330 331 332 333 334 336 337 338 338 339 340 340 340 340 340 340 340 340 340 339 339 339 340 340
333 333 332 332 332 332 331 331 331 331 331 331 331 331 330 329 328 328 328 328 328 329 329 330 330 330 330 330 330 330 330 330 330 331 331 331 330 330 330 331 330 330 329 329 329 329 329 329 329 329 329 329 329 329 329 330 330 330 331 331 331 332 332 333 335 336 337 338 339 340 341 341 341 342 341 341 341 341 341 341 341 340 340 340 341 341
333 333 333 333 333 333 333 333 332 332 332 332 332 332 331 330 330 330 330 330 331 331 332 332 332 332 331 331 331 331 331 331 331 331 332 332 331 331 331 331 331 331 331 330 330 330 330 330 330 330 330 330 331 331 331 332 332 333 333 334 334 334 335 336 337 339 340 341 342 342 343 343 343 343 343 343 343 342 342 342 341 341 341 341 342 342
334 334 335 335 335 334 334 334 334 334 334 334 334 334 333 332 332 332 332 332 333 334 334 334 334 333 332 332 331 331 331 331 332 332 333 332 332 332 332 332 333 333 333 332 331 331 331 331 331 331 332 332 332 333 333 334 335 335 336 336 337 337 338 339 340 341 343 343 344 345 345 345 345 345 345 345 344 344 343 343 342 342 342 342 343 343
335 335 335 335 335 335 335 335 335 335 336 336 336 335 335 334 334 334 334 335 336 337 336 336 335 334 333 333 332 332 332 332 333 333 334 333 333 333 333 333 334 334 334 333 333 332 332 332 333 333 333 333 334 335 335 336 337 338 339 339 340 341 341 342 343 344 345 346 347 347 347 347 347 348 348 347 347 346 345 344 343 343 343 343 343 343
336 336 336 336 336 336 336 336 336 337 337 337 337 337 337 337 337 337 337 337 338 338 337 336 335 335 334 333 333 332 332 332 334 335 335 335 334 334 334 334 334 335 335 335 334 334 333 333 334 334 335 335 336 337 338 339 340 341 342 342 343 344 344 345 346 347 348 349 349 349 350 350 350 350 350 350 349 348 346 345 344 344 344 344 344 344
338 338 337 337 336 336 337 337 338 339 339 339 339 339 339 339 339 339 339 339 338 338 337 336 335 335 334 334 333 333 333 333 335 336 336 336 335 335 335 335 335 335 335 336 335 335 334 334 335 336 337 338 339 340 341 343 344 345 345 346 346 347 347 348 349 351 351 352 352 352 352 352 352 352 352 352 351 350 349 347 346 346 346 345 345 345
339 339 338 338 338 338 339 339 340 341 341 341 341 341 342 342 342 342 341 340 338 337 337 336 335 335 335 334 334 334 334 335 336 337 337 337 336 336 336 336 336 336 336 336 336 336 335 336 336 337 339 340 342 343 345 347 348 348 349 349 349 349 350 351 353 353 354 354 354 354 354 353 353 353 352 352 352 351 350 349 348 348 347 347 347 347
339 339 339 339 339 340 341 342 342 343 343 343 343 344 344 344 344 343 342 340 339 337 336 336 336 336 336 336 336 336 336 336 337 338 338 338 337 337 337 337 337 337 337 337 337 337 337 338 338 340 341 343 345 347 349 350 351 351 351 351 352 352 353 354 355 356 356 356 355 355 354 354 353 352 352 351 351 351 350 350 350 349 349 349 349 349
340 340 340 341 342 343 344 344 344 344 344 345 345 346 346 345 345 343 342 341 339 338 337 337 337 337 338 338 338 338 337 338 338 338 339 338 338 338 338 338 338 338 338 338 339 339 340 340 341 343 345 346 348 350 352 353 354 354 354 354 355 355 356 357 357 357 357 357 356 356 355 354 353 352 351 351 351 350 350 351 351 352 352 352 352 352
341 342 343 344 345 345 346 346 346 345 346 346 346 347 346 346 345 344 342 341 340 339 339 339 339 340 340 340 340 339 339 339 339 339 339 339 339 339 338 338 338 339 339 339 340 341 342 343 344 346 348 350 351 352 354 355 356 356 357 357 358 358 359 359 359 359 358 358 357 356 355 353 352 351 351 350 351 352 352 353 354 355 356 356 356 357
343 344 345 346 347 347 347 347 347 347 347 347 347 347 347 346 345 344 343 342 342 342 342 342 342 342 342 341 341 341 340 339 339 339 339 339 339 339 340 339 339 340 341 341 342 343 344 346 347 349 351 353 354 354 354 355 357 358 359 360 0 1 1 0 360 359 359 358 356 355 354 353 352 352 352 352 353 354 356 357 358 359 360 360 0 1
346 347 347 348 348 348 348 348 348 348 347 347 347 346 346 346 345 345 344 344 344 344 344 344 344 343 343 342 342 341 341 340 340 340 340 340 341 341 341 341 341 341 342 343 344 345 347 349 350 352 354 355 355 356 356 357 358 359 0 1 2 2 2 1 0 360 359 358 357 356 355 354 354 354 354 355 356 358 360 1 2 2 2 3 3 4
348 349 349 349 349 349 349 348 348 348 348 347 347 346 346 346 346 345 345 345 346 346 346 345 345 344 344 343 343 342 342 342 341 342 342 342 342 342 342 342 342 343 344 345 347 348 350 351 353 354 355 356 356 357 357 358 359 360 0 1 2 3 2 2 1 0 359 358 357 356 356 356 356 357 358 359 0 1 2 3 3 3 3 4 5 6
349 350 350 350 350 350 349 349 348 348 348 347 347 347 346 346 346 346 347 347 347 348 347 347 346 346 345 344 344 343 343 343 343 343 344 344 344 344 344 344 344 344 345 347 349 351 352 353 354 355 355 356 356 357 358 360 0 0 0 1 2 2 2 1 1 0 359 359 358 357 358 358 359 0 1 2 3 4 4 4 4 4 4 4 5 5
351 351 351 350 350 350 349 349 349 348 348 347 347 347 347 347 347 347 348 348 349 349 349 348 348 347 346 345 345 345 344 344 345 345 345 345 345 345 345 346 346 346 348 349 351 353 354 355 355 356 356 357 357 357 359 0 1 1 1 1 1 0 0 1 1 1 0 360 359 359 359 0 1 3 3 4 5 5 5 5 5 5 5 5 5 5
352 352 351 350 350 350 350 349 349 349 348 348 348 348 348 348 348 349 349 350 350 350 350 349 348 348 347 346 345 346 346 346 346 347 347 347 347 347 347 347 348 349 350 352 353 355 356 356 357 357 358 358 358 358 360 1 2 2 2 1 0 0 1 2 2 2 1 1 1 2 2 2 3 4 4 5 5 6 6 6 6 6 6 6 6 7
352 351 351 351 350 350 350 350 350 350 349 349 349 349 349 349 350 351 351 351 351 351 350 349 349 348 348 347 347 346 346 347 348 348 349 349 350 350 350 350 351 352 353 354 355 356 357 358 358 358 359 359 359 359 360 1 2 3 3 2 1 2 2 2 3 3 3 4 4 4 4 4 4 4 4 4 5 6 6 7 7 7 7 7 8 8
352 351 351 351 351 351 351 351 351 350 350 350 350 350 351 351 352 352 352 352 352 351 351 350 349 349 348 348 348 347 348 348 349 350 351 351 352 352 353 353 353 354 356 357 357 357 358 359 359 360 0 1 1 1 1 2 2 3 3 2 2 3 3 3 3 4 5 5 6 6 6 5 5 4 4 4 5 6 6 7 8 8 8 9 9 9
351 351 351 351 351 352 352 352 351 351 351 351 352 352 352 353 353 353 353 353 352 352 351 351 350 349 349 349 348 348 349 349 350 351 352 353 354 355 355 356 356 357 358 359 359 359 359 359 359 0 1 2 2 2 2 2 2 3 3 3 3 3 3 4 4 5 6 6 7 7 7 6 6 5 5 5 5 6 7 8 8 9 9 10 10 10
352 352 352 352 352 352 352 352 352 352 352 353 353 354 354 354 354 354 354 353 353 352 352 352 351 351 350 350 350 350 350 351 351 353 354 355 356 357 358 358 359 359 359 360 0 1 1 0 0 1 2 2 3 3 3 3 3 3 3 3 3 3 4 5 5 6 6 6 6 7 7 7 7 7 7 6 6 6 7 8 9 10 10 11 11 11
353 353 353 353 353 353 353 353 353 354 354 355 355 356 356 355 355 355 354 354 354 353 353 352 352 352 352 351 351 352 352 352 353 354 355 356 358 359 360 0 1 1 1 2 2 2 3 3 3 3 3 3 3 3 4 4 4 4 4 3 4 4 5 5 6 6 6 6 6 6 6 7 8 8 8 8 8 8 9 10 11 12 12 12 12 12
354 354 354 354 354 354 354 354 355 355 356 357 357 357 357 356 356 356 355 355 355 354 354 354 353 353 353 353 353 354 354 354 355 356 357 358 359 0 1 2 3 3 4 4 4 5 5 5 5 5 5 4 4 3 4 4 5 5 4 4 5 5 5 6 6 5 5 5 5 5 6 7 8 9 9 10 10 11 11 12 13 14 14 14 14 13
355 355 355 354 355 355 355 356 356 357 358 358 358 358 358 357 357 357 356 356 356 356 355 355 355 354 354 355 355 355 356 357 357 358 359 360 1 1 2 3 3 4 5 6 7 7 7 7 7 6 6 6 6 4 4 4 5 5 5 6 6 6 6 6 6 5 5 5 5 6 7 8 9 10 12 12 12 13 13 14 15 15 16 15 14 13
356 356 356 356 356 357 357 358 358 359 359 359 359 359 358 358 357 357 357 357 357 357 357 357 356 356 356 356 357 357 358 358 359 360 1 1 2 3 3 4 4 4 5 6 7 8 8 9 9 9 8 8 7 6 5 5 5 6 6 7 7 7 7 6 6 5 5 4 5 6 7 8 10 12 14 14 14 14 14 14 15 16 16 15 14 12
357 357 357 357 358 359 359 360 0 1 1 0 360 359 359 359 359 359 359 359 359 358 358 358 358 358 358 358 359 359 360 0 1 1 2 3 3 4 4 5 5 6 6 6 7 7 7 8 9 9 10 10 9 8 8 7 6 7 7 7 8 8 7 6 6 5 5 4 5 6 7 9 11 12 14 14 14 14 13 13 13 14 14 14 12 10